Location: Crescent
(42.8242°N, 73.7329°W)
Time: 17:25:13
(UTC+00:00)

Vanguard 1 - Pass Details

Date: 21 February 2026
Orbit: 653 x 3818 km, 34.2° (Epoch: 5 March)

Event Time Altitude Azimuth Distance (km) Brightness Sun altitude
Rises 20:37:32 0° 250° (WSW) 4,468 14.9 18.7°
Reaches altitude 10° 20:40:00 10° 246° (WSW) 3,789 15.2 18.3°
Maximum altitude 20:50:17 59° 170° (S) 2,629 12.7 16.7°
Drops below altitude 10° 21:08:51 10° 97° (E) 6,473 13.8 13.8°
Sets 21:14:38 0° 95° (E) 7,763 14.1 12.8°
